SCP
0 0 0 0 0 0 0 0 0 0 0 0 0 0 0 0 0 0 0 0 0 0 0 0 0 0 0 0 0 0 0 0 0 0 0 0 0 0 0 0 0 0 0 0
0 0 0 0 0 0 0 0 0 0 0 0 0 0 0 0 0 0 0 0 0 0 0 0 0 0 0 0 0 0 0 0 0 0 0 0 0 0 0 0 0 0 0 0
0 0 0 0 0 0 0 0 0 0 0 0 0 0 0 0 0 0 0 0 0 0 0 0 0 0 0 0 0 0 0 0 0 0 0 0 0 0 0 0 0 0 0 0
0 0 0 0 0 0 0 0 0 0 0 0 0 0 0 0 0 0 0 0 0 0 0 0 0 0 0 0 0 0 0 0 0 0 0 0 0 0 0 0 0 0 0 0
0 0 0 0 0 0 0 0 0 0 0 0 0 0 0 0 0 0 0 0 0 0 0 0 0 0 0 0 0 0 0 0 0 0 0 0 0 0 0 0 0 0 0 0
0 0 0 0 0 0 0 0 0 0 0 0 0 0 0 0 0 0 0 0 0 0 0 0 0 0 0 0 0 0 0 0 0 0 0 0 0 0 0 0 0 0 0 0
0 0 0 0 0 0 0 0 0 0 0 0 0 0 0 0 0 0 0 0 0 0 0 0 0 0 0 0 0 0 0 0 0 0 0 0 0 0 0 0 0 0 0 0
0 0 0 0 0 0 0 0 0 0 0 0 0 0 0 0 0 0 0 0 0 0 0 0 0 0 0 0 0 0 0 0 0 0 0 0 0 0 0 0 0 0 0 0
0 0 0 0 0 0 0 0 0 0 0 0 0 0 0 0 0 0 0 0 0 0 0 0 0 0 0 0 0 0 0 0 0 0 0 0 0 0 0 0 0 0 0 0
0 0 0 0 0 0 0 0 0 0 0 0 0 0 0 0 0 0 0 0 0 0 0 0 0 0 0 0 0 0 0 0 0 0 0 0 0 0 0 0 0 0 0 0
0 0 0 0 0 0 0 0 0 0 0 0 0 0 0 0 0 0 0 0 0 0 0 0 0 0 0 0 0 -0 0 0 0 0 0 0 0 0 0 0 0 0 0 0
0 0 0 0 0 0 0 0 0 0 0 0 0 0 0 0 0 0 0 0 0 0 0 0 0 0 0 0 0 -0 0 0 0 0 0 0 0 0 0 0 0 0 0 0
0 0 0 0 0 0 0 0 0 0 0 0 0 0 0 0 0 0 0 0 0 0 0 0 0 0 0 0 0 0 0 0 0 0 0 0 0 0 0 0 0 0 0 0
0 0 0 0 0 0 0 0 0 0 0 0 0 0 0 0 0 0 0 0 0 0 0 0 0 0 0 0 0 0 0 0 0 0 0 0 0 0 0 0 0 0 0 0
0 0 0 0 0 0 0 0 0 0 0 0 0 0 0 0 0 0 0 0 0 0 0 0 0 0 0 0 0 0 0 0 0 0 0 0 0 0 0 0 0 0 0 0
0 0 0 0 0 0 0 0 0 0 0 0 0 0 0 0 0 0 0 0 0 0 0 0 0 0 0 0 0 0 0 0 0 0 0 0 0 0 0 0 0 0 0 0
0 0 0 0 0 0 0 0 0 0 0 0 0 0 0 0 0 0 0 0 0 0 0 0 0 0 0 0 0 0 0 0 0 0 0 0 0 0 0 0 0 0 0 0
0 0 0 0 0 0 0 0 0 0 0 0 0 0 0 0 0 0 0 0 0 0 0 0 0 0 0 0 0 0 0 0 0 0 0 0 0 0 0 0 0 0 0 0
0 0 0 0 0 0 0 0 0 0 0 0 0 0 0 0 0 0 0 0 0 0 0 0 0 0 0 0 0 0 0 0 0 0 0 0 0 0 0 0 0 0 0 0
0 0 0 0 0 0 0 0 0 0 0 0 0 0 0 0 0 0 0 0 0 0 0 0 0 0 0 0 0 0 0 0 0 0 0 0 0 0 0 0 0 0 0 0
0 0 0 0 0 0 0 0 0 0 0 0 0 0 0 0 0 0 0 0 0 0 0 0 0 0 0 0 0 0 0 0 0 0 0 0 0 0 0 0 0 0 0 0
0 0 0 0 0 0 0 0 0 0 0 0 0 0 0 0 0 0 0 0 0 0 0 0 0 0 0 0 0 0 0 0 0 0 0 0 0 0 0 0 0 0 0 0
0 0 0 0 0 0 0 0 0 0 0 0 0 0 0 0 0 0 0 0 0 0 0 0 0 0 0 0 0 0 0 0 0 0 0 0 0 0 0 0 0 0 0 0
0 0 0 0 0 0 0 0 0 0 0 0 0 0 0 0 0 0 0 0 0 0 0 0 0 0 0 0 0 0 0 0 0 0 0 0 0 0 0 0 0 0 0 0
0 0 0 0 0 0 0 0 0 0 0 0 0 0 0 0 0 0 0 0 0 0 0 0 0 0 0 0 0 0 0 0 0 0 0 0 0 0 0 0 0 0 0 0
0 0 0 0 0 0 0 0 0 0 0 0 0 0 0 0 0 0 0 0 0 0 0 0 0 0 0 0 0 0 0 0 0 0 0 0 0 0 0 0 0 0 0 0
0 0 0 0 0 0 0 0 0 0 0 0 0 0 0 0 0 0 0 0 0 0 0 0 0 0 0 0 0 0 0 0 0 0 0 0 0 0 0 0 0 0 0 0
Wind_Speed
16 17 15 17 20 19 20 21 23 27 27 27 21 14 10 8 8 10 12 14 15 16 16 16 15 14 12 10 8 7 8 10 12 11 12 12 13 13 14 15 16 16 17 18
14 16 17 22 25 26 25 24 26 27 26 15 7 8 9 10 10 11 13 16 17 17 18 17 17 15 13 12 10 8 9 11 10 10 11 12 12 13 14 15 15 16 17 17
14 10 11 17 17 17 14 14 15 17 12 7 10 11 14 14 12 12 15 17 18 18 17 16 16 15 14 14 12 10 10 10 10 10 11 11 12 13 14 14 15 16 17 18
9 7 13 9 1 6 11 14 14 13 10 9 11 13 14 13 11 15 18 19 18 17 17 16 15 14 14 13 13 12 11 11 9 9 11 11 12 13 14 13 14 14 16 18
5 8 14 11 7 4 6 9 5 2 6 11 13 15 13 9 11 16 18 18 16 15 15 15 15 14 14 14 14 12 12 12 10 9 10 11 12 13 12 12 13 14 15 17
6 7 10 6 3 0 4 7 2 4 12 16 17 16 13 15 17 18 17 15 13 13 14 14 14 13 14 15 14 14 13 13 12 11 11 12 13 13 11 11 13 12 14 15
9 10 12 7 0 2 6 5 4 11 15 16 16 16 18 19 17 16 15 14 12 13 13 14 14 13 14 15 15 14 14 14 14 13 12 12 12 11 10 10 11 13 13 14
7 10 12 3 5 5 8 10 12 16 16 17 18 19 18 17 16 14 12 12 12 12 13 14 14 14 15 16 15 15 15 15 14 14 11 9 11 10 10 10 11 12 12 12
9 11 7 3 7 10 11 15 16 16 17 18 18 17 16 14 13 12 12 12 12 13 15 15 15 15 17 16 15 15 15 15 14 14 12 10 10 10 9 9 9 9 10 10
14 15 17 16 16 16 15 16 17 17 17 16 16 15 13 11 10 11 12 13 13 15 16 16 16 16 16 16 15 15 15 15 13 13 12 11 8 8 8 8 9 9 10 10
19 20 20 14 12 14 17 17 18 17 15 13 12 11 10 10 11 11 12 13 13 14 16 18 17 17 16 16 15 15 15 14 13 11 11 10 9 8 10 10 10 10 9 9
18 17 18 20 18 19 19 18 16 14 12 10 8 9 10 11 11 12 13 14 15 16 17 18 18 18 17 15 14 14 13 13 11 10 9 9 9 9 12 15 17 20 19 15
22 20 20 21 19 17 16 14 11 10 10 9 8 9 11 12 12 14 15 16 17 17 18 18 18 18 17 15 14 14 14 13 10 10 10 9 9 9 9 9 14 19 21 22
16 17 20 18 16 13 12 10 9 8 8 8 9 10 11 13 14 16 17 17 18 18 18 18 18 18 17 15 14 14 14 13 12 10 9 9 9 9 8 9 8 7 11 18
13 13 15 14 12 10 8 7 8 8 9 10 10 11 13 15 16 17 17 17 17 18 18 18 18 18 16 14 14 14 13 10 10 10 10 9 9 9 8 9 9 8 6 8
13 12 10 8 8 7 7 7 8 10 11 13 14 15 15 16 17 17 17 17 18 19 18 18 18 17 16 15 14 12 11 15 15 11 10 9 9 8 8 8 8 7 7 7
8 7 6 6 7 7 8 8 10 12 13 15 16 16 16 17 18 19 18 17 17 18 18 17 17 16 15 14 14 11 11 12 16 12 9 9 9 9 8 8 7 7 7 7
3 4 4 5 7 9 11 11 12 13 14 16 17 17 18 19 20 19 19 18 18 18 17 16 15 15 15 15 12 11 10 10 10 10 9 9 9 8 8 8 8 8 7 7
2 3 5 6 8 10 12 13 14 15 15 16 17 18 18 18 18 18 18 18 18 18 15 13 20 19 16 16 15 11 11 11 11 10 9 11 10 8 8 7 7 7 7 6
5 6 8 10 11 11 13 15 15 16 16 16 17 18 18 17 17 17 17 16 13 13 14 17 18 15 14 14 16 11 11 12 12 11 9 9 8 8 7 7 7 7 7 7
9 9 10 12 14 14 14 16 16 17 16 16 16 17 18 18 17 16 15 16 13 14 16 20 15 13 13 14 17 12 11 11 11 10 9 9 8 7 7 6 6 6 6 6
11 11 13 14 16 16 15 14 15 16 16 16 16 15 16 17 16 15 14 13 15 17 15 13 13 16 19 21 12 11 11 11 10 9 9 8 7 7 6 6 6 6 6 6
12 13 15 16 16 17 16 15 15 14 15 16 16 17 17 16 14 14 15 12 13 19 17 13 18 26 28 16 11 11 11 11 10 9 8 7 6 6 5 5 5 5 5 5
14 14 14 14 14 15 16 15 13 12 13 15 14 14 14 14 13 12 12 18 21 23 16 18 26 27 24 11 10 10 10 9 9 8 7 6 5 5 4 4 4 4 5 6
13 12 12 12 13 12 13 13 12 12 13 12 14 14 12 11 12 13 14 16 20 21 15 18 23 23 15 10 10 9 9 8 8 7 6 5 5 4 3 3 4 4 4 5
12 12 11 11 11 11 11 10 10 11 11 12 12 12 12 11 13 13 12 15 18 20 16 12 13 14 10 10 10 10 9 9 8 6 5 4 4 3 3 3 4 4 4 4
11 11 10 10 10 10 9 9 10 11 11 12 13 13 13 12 12 13 15 13 13 13 12 12 11 10 10 9 9 9 8 7 6 5 4 3 2 2 2 3 3 3 4 4
Wind_Direction
265 278 280 274 271 261 251 256 267 276 283 292 316 336 341 343 341 342 346 346 343 338 334 332 330 329 327 316 306 285 267 259 257 257 254 251 248 244 239 235 233 230 228 226
268 270 274 274 268 264 262 261 262 271 279 303 355 351 341 333 329 328 334 335 333 329 326 325 324 323 319 314 308 289 271 266 265 262 258 253 250 246 240 236 233 230 229 226
281 299 293 269 258 253 245 245 254 268 294 359 342 342 333 324 316 321 327 328 324 321 320 318 318 317 313 311 308 295 282 277 273 266 262 257 252 247 243 239 234 231 228 227
285 288 248 257 299 265 263 265 266 272 297 324 331 324 311 308 312 320 323 321 319 318 316 314 312 311 310 308 304 299 292 286 278 267 264 262 257 251 246 240 235 232 229 228
252 262 273 279 281 246 250 274 275 300 336 332 329 312 307 331 321 316 316 315 313 313 311 309 309 313 313 307 305 301 297 295 288 271 267 266 261 256 250 242 237 233 230 228
225 247 265 286 105 332 264 269 130 335 329 329 328 317 320 332 320 314 314 314 315 314 311 310 314 318 310 306 306 304 304 302 297 288 276 269 266 263 254 245 241 236 233 230
232 244 267 281 119 216 251 330 356 322 322 319 314 307 310 314 312 312 313 314 318 317 315 314 317 316 308 306 307 310 307 302 297 291 283 278 274 266 256 247 243 239 237 232
220 228 251 189 176 231 306 328 313 313 315 314 310 308 309 311 313 314 314 316 320 317 314 314 315 314 308 307 310 310 306 301 297 295 291 281 273 266 255 246 243 241 239 237
223 238 273 225 253 295 311 305 310 312 312 310 307 307 310 311 311 312 313 314 316 314 311 311 314 315 308 308 311 308 304 300 299 298 293 284 274 267 256 243 241 240 235 235
262 262 272 280 286 291 299 306 310 309 308 306 304 305 306 307 308 310 311 314 315 314 311 311 314 312 307 307 309 306 303 302 301 299 296 291 276 263 254 245 239 237 235 234
264 277 286 283 286 298 307 307 304 304 304 303 301 299 301 302 305 307 309 310 312 309 307 308 310 308 308 308 308 305 303 302 300 297 295 293 281 265 257 248 243 238 239 237
268 284 293 298 306 309 304 302 302 303 302 300 293 294 299 300 302 305 308 310 309 308 307 308 309 307 307 308 307 304 302 301 300 299 297 292 289 281 256 251 255 248 244 242
274 288 294 299 303 304 301 301 300 296 292 293 294 296 298 300 303 305 305 307 309 310 307 306 307 305 307 308 306 301 298 297 296 293 292 292 289 285 285 270 252 251 247 244
283 292 293 299 304 307 305 300 295 290 287 288 295 299 300 302 303 303 304 307 308 307 304 304 305 304 308 309 306 299 297 294 291 290 290 288 285 280 276 278 278 263 247 243
289 292 294 302 302 304 304 301 300 300 304 306 307 304 303 303 302 303 305 305 305 303 303 306 306 306 310 309 303 298 296 292 292 292 289 286 282 277 271 266 265 265 258 244
303 300 298 300 307 316 320 315 308 308 310 309 307 306 304 301 299 300 301 304 306 306 305 305 303 304 307 305 300 296 293 292 295 293 291 288 283 276 270 264 259 255 250 243
301 306 313 316 319 322 320 312 307 306 307 306 305 305 303 301 300 301 305 308 305 301 300 299 298 301 302 299 298 295 294 294 295 292 287 286 283 277 270 262 255 251 247 239
288 295 301 306 311 313 312 310 306 305 303 303 303 303 302 303 303 305 305 306 304 301 298 299 301 304 301 299 297 293 292 291 290 287 285 282 281 275 268 257 251 250 247 237
293 296 303 302 300 299 299 301 301 301 300 300 301 303 303 300 299 300 303 304 303 301 301 304 306 306 301 297 297 293 291 290 288 285 281 280 279 272 263 254 249 243 236 228
279 285 293 298 299 295 296 298 300 300 301 302 302 301 301 302 303 303 302 297 291 291 298 302 303 300 298 298 299 294 290 289 288 286 282 276 274 270 261 252 245 239 230 223
281 287 293 298 301 301 299 299 300 300 301 302 300 299 300 301 302 301 299 298 299 301 304 305 303 299 300 301 302 295 292 291 289 287 284 280 274 267 257 248 240 231 223 216
280 287 294 299 301 301 301 299 296 296 298 299 298 298 299 301 302 299 292 291 298 304 306 302 301 299 303 306 299 295 293 292 291 289 286 281 275 266 255 245 237 225 216 210
283 287 292 297 299 299 299 295 291 292 294 296 299 300 301 301 302 300 301 302 304 306 306 299 299 303 307 307 297 294 293 293 292 290 286 282 276 266 256 244 231 217 209 201
283 286 288 291 293 293 291 290 288 288 290 292 291 291 294 297 297 295 295 301 304 305 303 299 302 305 309 303 297 295 294 293 293 291 288 283 274 263 253 238 222 208 200 194
278 280 283 285 287 286 287 289 289 288 290 293 296 298 296 294 296 300 301 301 304 306 303 302 304 306 305 297 296 296 295 293 292 291 286 279 269 259 246 224 208 198 190 186
276 280 284 280 279 282 285 287 288 292 298 300 301 304 304 302 300 300 301 303 304 304 303 302 302 303 301 300 301 299 297 297 296 292 285 279 267 254 235 212 197 188 181 176
274 277 278 278 277 275 277 281 286 291 296 299 302 304 305 305 304 305 305 305 305 304 303 302 301 301 303 303 301 301 301 299 296 291 286 277 261 239 208 191 182 173 167 164